Dewpoint
49 49 49 49 48 47 40 40 32 43 43 31 32 31 32 33 32 33 32 32 30 29 28 28 30 28 31 34 34 31 32 30 27 29 32 33 32 29 28 22 20 24 22 17
49 49 49 49 49 44 41 36 37 44 42 27 30 32 31 32 31 30 31 31 31 31 29 27 30 31 35 35 34 32 32 28 24 24 27 31 31 30 29 26 25 23 19 8
48 49 49 49 49 50 41 34 26 34 35 34 31 30 30 29 33 30 30 30 30 28 26 29 29 30 33 35 36 34 31 28 23 13 17 26 29 28 29 27 24 23 23 19
47 49 49 49 49 51 38 32 30 34 26 29 31 31 30 29 28 31 29 26 27 26 24 25 28 31 32 34 36 34 31 22 27 27 27 27 26 26 27 28 28 24 19 19
45 49 49 49 48 49 36 31 28 32 29 30 28 28 28 27 30 29 26 24 27 26 24 24 24 28 29 27 34 32 32 22 26 23 24 26 25 26 27 27 29 29 28 27
45 47 50 49 48 41 36 37 36 28 28 28 26 24 28 28 31 30 30 29 27 27 27 29 29 30 30 30 31 30 29 27 23 14 20 22 11 16 20 23 25 25 24 23
46 45 48 49 48 41 39 39 36 30 21 26 25 27 28 28 29 28 31 30 28 30 33 31 31 31 31 30 30 30 27 25 24 20 20 -7 1 16 20 20 21 24 22 22
47 46 46 48 47 43 37 38 37 30 20 25 26 28 26 28 29 27 26 30 31 33 29 23 17 21 25 27 29 29 28 26 22 17 17 12 5 18 18 17 7 18 21 21
47 46 45 47 47 45 38 37 39 35 21 16 26 26 27 22 23 25 29 32 33 32 26 21 9 1 13 18 25 29 29 28 24 23 15 -6 -1 14 21 17 -2 6 17 18
47 46 46 46 47 46 38 37 38 37 28 28 27 22 22 28 26 22 25 28 31 29 23 17 13 11 16 12 15 23 26 27 25 24 22 19 22 20 21 3 -7 13 19 18
47 46 46 45 46 46 40 39 38 33 29 28 35 31 30 31 28 18 22 23 27 27 21 20 18 17 17 16 15 21 20 22 23 25 23 8 24 22 10 8 13 19 19 19
48 47 46 45 44 45 41 36 40 39 34 30 37 37 36 33 30 27 29 21 27 27 22 24 22 19 20 17 5 21 13 18 16 22 14 21 23 21 20 22 21 22 21 21
51 48 46 45 44 45 41 40 40 38 34 31 31 33 33 33 33 35 29 29 31 31 30 26 25 19 21 15 15 15 17 20 18 16 12 18 20 23 23 23 20 20 22 23
51 51 49 46 44 45 42 40 41 38 36 29 27 34 32 33 33 33 34 33 35 35 33 29 26 22 24 19 19 17 16 17 16 17 16 16 15 17 18 20 21 21 21 22
50 50 50 47 44 44 42 40 38 39 33 29 29 34 32 33 33 33 34 34 33 32 30 30 28 29 29 28 27 25 23 20 17 15 19 20 22 21 25 25 24 24 22 22
49 50 51 48 44 43 41 37 37 37 38 29 26 32 31 33 33 33 33 33 33 32 30 29 30 32 29 26 25 26 26 26 26 24 27 28 28 28 26 26 27 26 24 24
46 49 50 48 44 40 36 35 37 37 38 33 28 27 32 32 32 32 32 33 33 32 31 31 31 31 32 29 26 26 26 28 30 30 29 25 27 26 28 29 29 27 26 28
46 47 49 46 45 43 38 38 40 39 36 33 28 27 30 31 30 29 32 31 31 31 31 31 31 30 30 28 29 30 30 29 27 28 29 29 28 28 29 29 28 28 27 27
45 47 46 42 39 37 37 39 38 36 35 30 30 26 25 31 30 30 30 30 26 30 29 29 29 28 26 27 28 28 28 28 27 27 26 25 25 23 24 27 28 28 28 28
46 42 40 36 37 40 38 34 32 32 32 31 29 31 28 28 29 28 29 29 27 25 28 30 28 26 28 29 29 29 28 26 24 21 16 19 19 21 23 26 27 28 28 28
40 37 36 36 38 34 32 31 29 30 28 31 30 29 28 30 26 25 29 27 27 23 25 27 25 24 25 27 26 25 21 20 20 22 22 22 22 22 25 25 26 26 25 25
39 37 36 34 33 32 30 28 30 29 26 28 29 29 29 29 29 27 28 25 25 21 26 26 22 23 25 24 23 21 19 16 17 17 18 19 21 23 25 25 25 25 26 26
38 34 33 31 30 26 24 21 25 25 27 28 28 27 27 27 28 26 27 24 22 23 22 21 20 22 22 23 23 22 22 21 21 22 23 22 22 22 22 21 24 26 26 26
34 30 26 24 24 24 24 25 23 26 27 27 27 26 26 27 25 25 23 25 24 21 19 18 20 21 22 24 24 24 24 25 24 24 24 24 24 23 22 23 23 23 24 26
30 30 23 24 25 26 28 28 28 27 28 28 27 26 26 26 25 26 25 23 20 21 20 20 21 22 23 24 24 25 25 26 26 26 26 25 25 24 23 23 24 24 24 24
31 31 26 27 26 26 27 28 28 28 28 27 26 24 22 22 24 24 23 21 19 20 21 22 23 23 24 24 26 26 26 27 27 27 27 27 26 25 25 24 24 24 24 24
27 25 29 27 26 27 28 30 29 28 27 24 26 23 21 23 23 21 23 21 20 22 22 24 24 24 25 26 25 25 26 27 28 28 28 27 27 26 24 25 26 27 26 25
Wind_Speed
18 20 19 16 8 9 4 1 2 4 3 6 4 4 2 0 3 2 2 2 5 3 3 3 2 2 0 1 2 2 2 4 5 8 2 6 4 5 6 4 4 3 2 12
17 19 21 19 10 7 5 1 1 2 3 5 4 1 3 2 2 4 2 2 3 0 2 3 2 3 1 3 3 4 2 1 1 2 2 1 7 8 7 5 2 9 5 8
18 19 22 23 18 9 4 2 2 3 4 2 5 4 3 3 0 2 2 2 3 2 3 4 3 2 1 2 3 4 2 3 6 6 2 4 6 10 15 13 7 5 19 19
18 19 22 25 26 13 3 4 1 1 1 4 3 2 1 2 3 1 2 2 3 2 3 2 3 3 3 1 4 2 2 4 4 12 16 13 13 11 14 24 24 15 5 17
17 19 21 24 26 6 4 2 2 2 2 3 2 3 1 3 1 1 1 3 2 1 3 5 7 6 5 4 3 4 1 2 2 11 6 8 17 21 22 25 25 29 28 43
17 18 20 23 25 4 2 2 1 3 1 1 1 1 0 1 1 1 1 0 0 3 3 1 1 1 3 2 5 8 4 3 2 5 4 12 15 16 24 15 16 26 27 41
15 17 19 21 23 11 2 2 2 3 3 3 3 2 2 1 1 1 1 1 1 1 1 3 3 1 2 4 6 4 5 2 1 7 10 3 2 6 7 21 17 27 28 32
12 15 17 19 21 14 8 3 3 1 3 4 4 5 3 2 0 2 3 2 2 1 2 1 2 2 0 0 0 8 2 4 3 4 6 14 2 1 5 7 8 11 28 27
9 12 14 16 18 14 6 7 1 2 1 7 3 5 5 4 4 2 3 0 2 3 2 1 1 2 1 1 2 6 5 3 3 1 4 5 2 1 2 2 4 3 5 12
7 9 12 14 15 15 5 4 3 3 2 2 1 3 4 6 3 1 2 1 0 3 2 3 4 2 2 3 5 7 5 4 13 10 7 14 13 9 2 3 3 3 3 5
4 6 9 12 13 14 3 3 5 3 0 5 2 2 2 2 2 3 3 1 0 1 2 2 2 2 2 2 2 5 10 11 8 6 7 7 10 6 6 2 4 5 7 10
3 4 6 9 12 13 4 3 2 2 3 3 1 3 4 2 1 3 3 2 4 5 3 2 2 3 2 3 4 3 6 9 4 15 10 4 7 9 5 4 11 18 19 22
4 3 3 5 8 10 7 2 3 3 3 4 2 1 3 3 4 3 3 3 2 3 1 5 2 6 5 5 8 3 5 6 7 3 6 11 18 19 19 18 23 23 19 20
4 4 3 2 5 7 6 3 3 2 4 2 1 1 2 4 7 1 1 2 4 5 1 0 2 4 5 5 4 5 5 4 5 12 24 19 10 5 8 17 19 20 20 16
3 4 5 1 3 5 5 4 4 3 2 2 5 2 2 5 3 1 2 3 3 2 2 4 5 3 3 2 1 12 8 8 7 9 8 8 21 15 21 25 22 23 23 19
2 3 4 4 0 3 2 2 3 2 2 1 4 0 2 5 6 7 5 5 4 3 4 3 3 3 2 4 5 11 9 8 5 9 18 22 28 29 11 15 22 23 18 16
3 3 4 7 3 2 1 1 1 2 2 2 6 3 1 1 2 3 3 3 2 3 3 2 1 2 2 3 7 3 4 8 17 14 10 18 5 17 28 25 24 17 13 12
2 3 6 8 6 5 2 3 4 1 3 1 4 4 0 1 1 1 2 2 2 2 2 2 3 2 1 8 12 16 14 19 18 5 11 16 22 22 19 15 15 16 17 16
4 10 11 3 2 1 1 0 4 2 1 2 2 3 2 0 2 2 2 1 2 0 2 2 2 4 10 12 12 13 11 10 22 23 19 15 14 20 21 20 18 14 16 14
13 4 3 1 1 2 1 2 1 1 2 1 4 1 3 2 1 1 2 1 2 2 2 1 3 7 13 18 17 16 13 12 10 13 24 23 24 21 22 19 18 16 16 15
2 3 2 2 1 0 2 1 1 1 4 5 4 8 3 2 3 3 1 3 2 2 2 2 3 6 5 1 6 8 7 7 7 8 13 13 15 18 20 22 19 17 15 13
5 7 5 2 1 2 0 3 1 5 4 2 3 3 5 0 1 1 2 3 2 4 0 2 4 7 5 3 4 5 5 6 9 6 12 14 16 16 16 17 18 17 15 16
3 3 3 2 1 3 5 5 4 4 3 4 3 2 1 1 1 1 1 2 4 3 3 5 10 3 3 3 5 8 8 7 11 15 15 15 19 17 13 20 18 17 18 19
3 4 4 6 5 6 6 5 3 3 2 6 4 4 1 1 2 2 2 2 4 3 4 9 3 6 6 1 5 11 18 21 22 24 23 23 23 24 23 18 17 19 23 23
3 3 4 8 5 1 2 3 4 2 4 5 4 4 2 1 1 2 1 2 5 7 7 3 3 4 6 7 12 15 15 18 23 23 22 23 23 24 25 22 21 18 19 21
3 3 4 4 3 8 7 6 7 4 5 3 3 3 1 4 3 5 8 4 9 6 5 4 4 10 11 17 17 15 18 21 23 22 21 21 23 24 25 24 23 24 21 23
4 5 7 2 1 3 3 3 3 4 5 3 2 2 6 2 4 5 7 9 7 6 11 12 12 14 26 23 24 23 22 22 22 22 21 23 20 21 22 27 27 21 21 21
Wind_Direction
359 359 1 2 29 123 101 45 15 345 357 57 42 42 65 58 28 37 74 47 74 75 99 98 98 115 24 116 120 82 38 112 182 206 249 223 199 203 167 191 206 216 198 276
3 359 359 359 349 194 136 22 322 25 13 92 77 80 65 61 55 42 79 72 56 11 101 108 100 117 80 129 103 149 158 120 156 342 350 82 215 203 191 132 121 224 198 261
1 2 0 359 351 203 140 78 336 358 61 41 121 131 113 121 27 51 65 109 91 81 62 43 131 127 144 100 110 113 108 185 215 223 198 156 217 215 198 194 206 221 229 265
4 3 4 3 360 174 137 32 97 95 14 29 27 52 113 131 138 132 63 87 103 140 141 126 150 162 163 110 140 103 137 252 229 264 261 254 249 243 218 216 222 228 253 247
6 5 7 9 12 158 87 151 149 69 93 348 11 357 169 167 189 190 241 167 191 200 188 205 198 178 200 201 166 157 91 266 333 290 304 248 257 254 243 236 235 249 261 276
11 9 9 13 18 50 94 144 120 124 338 99 44 306 341 307 32 335 11 165 287 251 275 161 53 156 110 158 176 183 177 202 342 271 315 313 281 249 229 223 221 229 244 251
13 15 14 17 24 53 84 27 98 133 210 191 196 177 145 190 254 265 299 175 254 238 87 87 77 85 208 205 227 173 161 153 237 289 333 293 231 211 211 207 234 221 243 259
14 16 18 21 24 38 74 17 24 120 207 194 196 179 180 172 274 227 237 213 197 94 44 344 345 351 91 104 68 214 181 142 291 305 294 297 290 110 161 185 295 243 237 259
15 17 21 20 23 33 86 54 23 33 293 239 151 167 182 206 205 257 231 194 143 86 100 85 274 276 299 213 115 53 127 121 186 15 306 277 308 9 184 158 304 319 236 273
6 15 17 21 20 24 87 68 47 80 321 277 189 208 187 149 146 199 293 275 136 26 165 192 207 240 182 227 202 178 158 192 215 216 258 280 254 221 136 342 300 308 249 303
352 8 17 17 16 16 56 95 42 43 181 282 291 311 148 128 160 172 179 101 143 109 190 198 240 227 241 280 210 185 188 171 193 173 221 287 190 105 191 283 317 311 308 294
301 342 6 20 15 13 26 68 38 84 199 268 286 295 320 322 174 161 194 197 176 184 123 202 155 255 236 209 270 200 236 208 206 201 234 258 201 240 251 286 292 294 289 290
283 285 329 15 22 16 29 357 346 72 10 301 340 360 3 48 10 328 252 253 190 175 153 155 166 250 156 228 238 244 241 207 244 280 279 260 269 264 276 288 288 290 290 285
293 261 255 348 25 30 24 22 340 74 109 315 270 344 34 332 357 339 156 141 86 97 79 165 205 233 190 234 269 234 241 183 237 261 287 310 303 299 316 321 313 307 300 284
293 288 267 270 27 36 74 61 15 322 35 271 288 330 4 349 352 77 131 147 147 152 180 195 225 232 235 235 293 254 203 228 213 259 323 306 294 290 307 307 305 296 290 289
301 309 241 215 355 51 89 54 21 350 11 4 294 273 38 24 64 85 88 121 122 136 172 210 258 279 251 275 247 261 235 250 260 287 310 298 291 295 305 318 313 309 300 288
258 306 257 169 155 71 5 240 208 81 8 308 296 264 136 70 45 34 46 49 114 141 168 205 243 274 237 259 256 282 288 302 302 290 304 315 308 307 307 301 299 300 297 290
220 271 130 136 124 115 81 7 3 71 106 39 280 282 296 86 113 122 14 93 36 38 163 200 201 247 206 253 254 282 308 321 314 341 310 282 292 309 315 315 314 311 306 306
166 129 126 103 25 174 154 49 72 30 167 193 204 264 283 71 105 113 87 104 147 149 206 249 172 211 226 230 270 294 314 311 298 313 311 310 310 319 328 334 331 322 316 317
137 117 143 183 202 258 59 23 52 20 305 128 217 163 246 185 129 132 109 38 122 212 229 142 232 262 267 266 262 276 299 309 309 325 344 338 335 329 325 322 315 306 301 304
153 144 135 139 341 354 48 345 238 191 254 212 227 193 195 203 204 161 156 174 174 225 196 219 261 267 244 287 332 329 320 308 294 265 281 290 288 304 315 320 318 314 306 294
157 126 109 112 115 80 347 239 257 230 260 229 226 198 192 172 12 164 161 149 137 240 165 222 253 248 249 310 326 331 329 328 334 322 327 326 316 310 304 303 308 307 296 288
77 76 73 127 162 209 206 217 218 233 227 200 173 144 106 77 95 94 167 179 210 121 204 233 230 197 251 246 290 326 314 313 332 331 332 326 320 314 303 306 301 295 294 290
111 154 201 204 202 226 205 202 223 247 204 161 144 120 120 124 151 163 218 203 139 219 243 239 231 180 174 265 342 352 340 337 331 324 322 323 320 317 310 299 298 296 288 287
139 168 223 226 233 185 254 279 292 226 160 141 121 83 102 92 204 179 162 213 239 223 239 251 203 193 246 303 313 324 312 313 312 311 312 310 309 308 306 306 306 295 290 287
148 210 240 252 274 254 231 260 273 191 149 123 85 106 74 239 188 188 216 223 225 245 226 251 278 298 270 288 275 294 312 306 300 298 295 299 306 306 303 301 299 296 288 286
204 219 233 194 343 237 222 210 248 174 168 208 121 193 233 132 230 220 205 223 248 270 298 295 283 285 319 322 318 311 302 292 282 285 289 291 290 292 297 300 302 298 287 280